CW6955 Weather Reports


time (UTC)temp
C
wind
direction
speed
KPH
gust
KPH
rain 1hr
cm
rain 24hr
cm
rain mn
cm
humidity
%
barometer
mb
20260507015214 15 161 9.7 14.5 0.00 0.00 0.00 77 1007.3
20260507015014 15 168 9.7 14.5 0.00 0.00 0.00 77 1007.3
20260507014815 14 173 9.7 16.1 0.00 0.00 0.00 78 1007.3
20260507014614 14 178 9.7 19.3 0.00 0.00 0.00 78 1007.3
20260507014415 14 179 9.7 19.3 0.00 0.00 0.00 78 1007.3
20260507014014 15 182 9.7 19.3 0.00 0.00 0.00 77 1007.2
20260507013815 15 181 9.7 20.9 0.00 0.00 0.00 77 1007.3
20260507013615 15 183 9.7 20.9 0.00 0.00 0.00 78 1007.2
20260507013415 15 182 9.7 20.9 0.00 0.00 0.00 78 1007.2
20260507013216 15 182 9.7 20.9 0.00 0.00 0.00 78 1007.1
20260507012815 14 182 9.7 17.7 0.00 0.00 0.00 78 1007.2
20260507012615 14 179 9.7 17.7 0.00 0.00 0.00 78 1007.2
20260507012417 14 178 11.3 17.7 0.00 0.00 0.00 78 1007.2
20260507012016 14 177 11.3 17.7 0.00 0.00 0.00 78 1007.1
20260507011614 15 179 11.3 17.7 0.00 0.00 0.00 77 1007.0
20260507011416 15 179 11.3 22.5 0.00 0.00 0.00 77 1007.0
20260507011216 15 178 11.3 22.5 0.00 0.00 0.00 77 1007.0
20260507011014 15 175 11.3 22.5 0.00 0.00 0.00 77 1007.0
20260507010815 15 174 11.3 22.5 0.00 0.00 0.00 77 1006.9
20260507010614 15 171 11.3 24.1 0.00 0.00 0.00 76 1007.0
20260507010016 15 172 11.3 24.1 0.00 0.00 0.00 76 1006.9
20260507005816 15 173 11.3 24.1 0.00 0.00 0.00 76 1006.9
20260507005414 15 178 11.3 20.9 0.00 0.00 0.00 76 1006.8
20260507005214 15 179 11.3 20.9 0.00 0.00 0.00 76 1006.8
20260507004815 15 182 12.9 19.3 0.00 0.00 0.00 75 1006.6
20260507004615 15 182 12.9 19.3 0.00 0.00 0.00 75 1006.6
20260507004415 15 179 12.9 24.1 0.00 0.00 0.00 74 1006.5
20260507004214 15 176 14.5 24.1 0.00 0.00 0.00 74 1006.6
20260507003815 15 167 14.5 27.4 0.00 0.00 0.00 74 1006.5
20260507003614 15 166 14.5 27.4 0.00 0.00 0.00 73 1006.4
20260507003414 15 169 14.5 27.4 0.00 0.00 0.00 73 1006.4
20260507003214 15 169 16.1 27.4 0.00 0.00 0.00 73 1006.4
20260507003014 15 167 16.1 32.2 0.00 0.00 0.00 73 1006.5
20260507002814 16 164 16.1 32.2 0.00 0.00 0.00 73 1006.5
20260507002615 16 161 16.1 32.2 0.00 0.00 0.00 73 1006.5
20260507002414 16 156 16.1 32.2 0.00 0.00 0.00 72 1006.4
20260507002215 16 153 16.1 32.2 0.00 0.00 0.00 72 1006.3
20260507002014 16 152 16.1 29.0 0.00 0.00 0.00 72 1006.3
20260507001815 16 151 14.5 27.4 0.00 0.00 0.00 72 1006.3
20260507001615 16 149 14.5 29.0 0.00 0.00 0.00 72 1006.3
20260507001414 16 150 14.5 29.0 0.00 0.00 0.00 72 1006.2
20260507001214 16 150 12.9 29.0 0.00 0.00 0.00 72 1006.1
20260507001014 16 152 12.9 29.0 0.00 0.00 0.00 72 1006.1
20260507000614 16 157 14.5 22.5 0.00 0.00 0.00 72 1006.0
20260507000413 16 157 14.5 22.5 0.00 0.00 0.00 71 1006.0
20260507000214 16 158 14.5 22.5 0.00 0.00 0.00 71 1006.0
20260506235814 16 155 16.1 25.7 0.00 0.00 0.00 71 1006.0
20260506235614 16 153 16.1 29.0 0.00 0.00 0.00 71 1006.0
20260506235414 16 152 16.1 29.0 0.00 0.00 0.00 71 1006.0
20260506235214 16 150 16.1 29.0 0.00 0.00 0.00 71 1006.0
20260506235014 16 148 16.1 29.0 0.00 0.00 0.00 71 1006.0
20260506234614 16 146 16.1 29.0 0.00 0.00 0.00 71 1005.9
20260506234415 16 144 16.1 29.0 0.00 0.00 0.00 71 1005.9
20260506234014 16 146 14.5 29.0 0.00 0.00 0.00 71 1005.8
20260506233815 16 147 14.5 29.0 0.00 0.00 0.00 71 1005.8
20260506233614 16 147 14.5 29.0 0.00 0.00 0.00 71 1005.8
20260506233413 16 149 14.5 29.0 0.00 0.00 0.00 71 1005.8
20260506233214 16 152 16.1 27.4 0.00 0.00 0.00 71 1005.7
20260506233013 16 153 16.1 30.6 0.00 0.00 0.00 71 1005.7
20260506232614 16 154 16.1 30.6 0.00 0.00 0.00 70 1005.8
20260506232214 16 154 16.1 30.6 0.00 0.00 0.00 70 1005.8
20260506232014 16 153 14.5 27.4 0.00 0.00 0.00 70 1005.8
20260506231814 16 151 14.5 27.4 0.00 0.00 0.00 70 1005.8
20260506231614 16 152 14.5 27.4 0.00 0.00 0.00 70 1005.8
20260506231414 16 152 16.1 25.7 0.00 0.00 0.00 70 1005.8
20260506231014 16 153 16.1 27.4 0.00 0.00 0.00 70 1005.7
20260506230614 16 154 16.1 30.6 0.00 0.00 0.00 70 1005.7
20260506230414 17 154 17.7 30.6 0.00 0.00 0.00 70 1005.6
20260506230214 17 153 16.1 30.6 0.00 0.00 0.00 70 1005.6
20260506230014 17 151 16.1 35.4 0.00 0.00 0.00 69 1005.6
20260506225814 17 147 16.1 35.4 0.00 0.00 0.00 69 1005.5
20260506225614 17 146 16.1 35.4 0.00 0.00 0.00 69 1005.4
20260506225414 17 143 14.5 35.4 0.00 0.00 0.00 69 1005.4
20260506225214 17 143 14.5 35.4 0.00 0.00 0.00 69 1005.4
20260506225014 17 142 14.5 29.0 0.00 0.00 0.00 70 1005.4
20260506224814 17 142 12.9 29.0 0.00 0.00 0.00 70 1005.3
20260506224614 17 142 12.9 27.4 0.00 0.00 0.00 70 1005.4
20260506224414 17 142 12.9 27.4 0.00 0.00 0.00 70 1005.3
20260506224213 17 141 12.9 27.4 0.00 0.00 0.00 70 1005.4
20260506223814 17 141 12.9 27.4 0.00 0.00 0.00 70 1005.3
20260506223614 16 139 12.9 25.7 0.00 0.00 0.00 70 1005.3
20260506223414 16 140 12.9 27.4 0.00 0.00 0.00 71 1005.3
20260506223214 16 141 14.5 27.4 0.00 0.00 0.00 71 1005.3
20260506223014 16 140 14.5 27.4 0.00 0.00 0.00 70 1005.2
20260506222815 16 142 14.5 27.4 0.00 0.00 0.00 70 1005.2
20260506222613 16 143 14.5 27.4 0.00 0.00 0.00 70 1005.1
20260506222413 16 142 14.5 29.0 0.00 0.00 0.00 70 1005.0
20260506222213 16 141 14.5 29.0 0.00 0.00 0.00 70 1005.0
20260506222013 17 142 14.5 30.6 0.00 0.00 0.00 70 1005.0
20260506221814 17 141 14.5 30.6 0.00 0.00 0.00 70 1005.0
20260506221614 17 141 14.5 30.6 0.00 0.00 0.00 70 1005.0
20260506221414 17 142 14.5 30.6 0.00 0.00 0.00 70 1004.9
20260506221214 17 140 14.5 30.6 0.00 0.00 0.00 70 1004.9
20260506220814 17 139 12.9 27.4 0.00 0.00 0.00 70 1004.9
20260506220414 17 138 12.9 29.0 0.00 0.00 0.00 69 1004.7
20260506220214 17 138 14.5 29.0 0.00 0.00 0.00 69 1004.8
20260506220014 17 137 14.5 29.0 0.00 0.00 0.00 69 1004.8
20260506215814 17 139 14.5 29.0 0.00 0.00 0.00 69 1004.8
20260506215614 17 140 14.5 29.0 0.00 0.00 0.00 68 1004.8
20260506215414 17 140 14.5 29.0 0.00 0.00 0.00 68 1004.9
20260506215213 17 140 14.5 29.0 0.00 0.00 0.00 68 1004.9
20260506215014 17 140 14.5 29.0 0.00 0.00 0.00 68 1004.9
20260506214814 17 138 14.5 24.1 0.00 0.00 0.00 68 1004.8
20260506214613 17 137 14.5 25.7 0.00 0.00 0.00 68 1004.9
20260506214414 17 137 14.5 27.4 0.00 0.00 0.00 68 1004.9
20260506214214 17 139 14.5 27.4 0.00 0.00 0.00 67 1004.9
20260506214014 17 139 14.5 27.4 0.00 0.00 0.00 67 1004.9
20260506213814 17 140 14.5 27.4 0.00 0.00 0.00 67 1004.9
20260506213414 17 139 14.5 25.7 0.00 0.00 0.00 67 1004.8
20260506213214 17 139 14.5 25.7 0.00 0.00 0.00 67 1004.8
20260506213014 17 138 14.5 25.7 0.00 0.00 0.00 67 1004.8
20260506212814 17 137 14.5 25.7 0.00 0.00 0.00 67 1004.8
20260506212414 17 140 16.1 27.4 0.00 0.00 0.00 66 1004.8
20260506212214 17 140 16.1 30.6 0.00 0.00 0.00 66 1004.7
20260506212013 17 140 16.1 30.6 0.00 0.00 0.00 66 1004.7
20260506211813 17 141 16.1 30.6 0.00 0.00 0.00 66 1004.8
20260506211614 18 138 16.1 33.8 0.00 0.00 0.00 66 1004.8
20260506211214 18 135 16.1 33.8 0.00 0.00 0.00 65 1004.7
20260506211014 18 135 17.7 33.8 0.00 0.00 0.00 65 1004.7
20260506210813 18 135 17.7 33.8 0.00 0.00 0.00 65 1004.6
20260506210613 18 138 17.7 33.8 0.00 0.00 0.00 65 1004.6
20260506210413 18 140 17.7 35.4 0.00 0.00 0.00 65 1004.7
20260506210213 18 140 17.7 35.4 0.00 0.00 0.00 64 1004.7
20260506210014 18 141 17.7 37.0 0.00 0.00 0.00 64 1004.7
20260506205814 18 141 17.7 37.0 0.00 0.00 0.00 64 1004.7
20260506205614 18 140 17.7 37.0 0.00 0.00 0.00 64 1004.7
20260506205414 18 141 17.7 37.0 0.00 0.00 0.00 64 1004.7
20260506205214 18 141 17.7 37.0 0.00 0.00 0.00 64 1004.7
20260506205014 18 142 17.7 32.2 0.00 0.00 0.00 64 1004.7
20260506204814 18 142 17.7 33.8 0.00 0.00 0.00 64 1004.6
20260506204614 18 141 17.7 33.8 0.00 0.00 0.00 64 1004.6
20260506204213 18 140 17.7 45.1 0.00 0.00 0.00 64 1004.6
20260506204014 18 137 19.3 45.1 0.00 0.00 0.00 64 1004.6
20260506203613 18 140 17.7 45.1 0.00 0.00 0.00 64 1004.4
20260506203414 18 140 17.7 38.6 0.00 0.00 0.00 63 1004.4
20260506203214 18 141 16.1 38.6 0.00 0.00 0.00 63 1004.4
20260506203014 18 142 14.5 38.6 0.00 0.00 0.00 63 1004.4
20260506202814 18 140 14.5 38.6 0.00 0.00 0.00 63 1004.5
20260506202613 18 137 14.5 37.0 0.00 0.00 0.00 63 1004.5
20260506202413 18 135 14.5 37.0 0.00 0.00 0.00 63 1004.5
20260506202013 18 134 14.5 35.4 0.00 0.00 0.00 63 1004.4
20260506201613 18 136 14.5 35.4 0.00 0.00 0.00 63 1004.4
20260506201413 18 137 14.5 35.4 0.00 0.00 0.00 62 1004.5
20260506201213 18 138 14.5 35.4 0.00 0.00 0.00 62 1004.4
20260506201013 18 138 14.5 32.2 0.00 0.00 0.00 62 1004.4
20260506200413 18 139 16.1 29.0 0.00 0.00 0.00 62 1004.4
20260506200213 18 141 17.7 29.0 0.00 0.00 0.00 62 1004.4
20260506200013 18 141 17.7 29.0 0.00 0.00 0.00 62 1004.4
20260506195813 18 140 17.7 33.8 0.00 0.00 0.00 62 1004.4
20260506195613 18 140 17.7 35.4 0.00 0.00 0.00 62 1004.4
20260506195413 18 141 16.1 35.4 0.00 0.00 0.00 62 1004.2
20260506195213 18 140 16.1 35.4 0.00 0.00 0.00 62 1004.3
20260506195013 18 139 16.1 35.4 0.00 0.00 0.00 62 1004.2
20260506194813 18 140 16.1 35.4 0.00 0.00 0.00 62 1004.2
20260506194613 18 143 16.1 32.2 0.00 0.00 0.00 62 1004.1
20260506194413 18 143 16.1 32.2 0.00 0.00 0.00 62 1004.2
20260506194213 18 144 16.1 29.0 0.00 0.00 0.00 61 1004.2
20260506194013 18 144 16.1 29.0 0.00 0.00 0.00 61 1004.2
20260506193613 19 142 14.5 32.2 0.00 0.00 0.00 61 1004.2
20260506193413 19 142 14.5 32.2 0.00 0.00 0.00 61 1004.2
20260506193213 19 140 14.5 32.2 0.00 0.00 0.00 60 1004.2
20260506193013 19 140 14.5 32.2 0.00 0.00 0.00 60 1004.2
20260506192813 19 142 14.5 32.2 0.00 0.00 0.00 60 1004.2
20260506192613 19 144 14.5 25.7 0.00 0.00 0.00 60 1004.2
20260506192413 19 145 14.5 25.7 0.00 0.00 0.00 60 1004.2
20260506192213 19 147 14.5 25.7 0.00 0.00 0.00 60 1004.4
20260506192013 19 148 14.5 32.2 0.00 0.00 0.00 60 1004.4
20260506191413 19 145 14.5 32.2 0.00 0.00 0.00 59 1004.3
20260506191213 19 143 16.1 32.2 0.00 0.00 0.00 59 1004.3
20260506191013 19 142 16.1 32.2 0.00 0.00 0.00 59 1004.3
20260506190813 19 142 17.7 32.2 0.00 0.00 0.00 58 1004.3
20260506190413 19 143 19.3 38.6 0.00 0.00 0.00 58 1004.2
20260506190213 19 143 19.3 38.6 0.00 0.00 0.00 58 1004.2
20260506190013 20 141 19.3 38.6 0.00 0.00 0.00 58 1004.2
20260506185813 20 141 19.3 38.6 0.00 0.00 0.00 58 1004.2
20260506185413 20 141 17.7 32.2 0.00 0.00 0.00 58 1004.1
20260506184813 20 143 16.1 32.2 0.00 0.00 0.00 57 1004.0
20260506184613 20 144 16.1 32.2 0.00 0.00 0.00 57 1004.0
20260506184413 20 143 16.1 29.0 0.00 0.00 0.00 57 1003.9
20260506184213 20 143 16.1 29.0 0.00 0.00 0.00 57 1003.9
20260506184013 20 142 16.1 32.2 0.00 0.00 0.00 57 1003.9
20260506183813 20 142 16.1 32.2 0.00 0.00 0.00 57 1003.9
20260506183613 20 140 16.1 32.2 0.00 0.00 0.00 57 1003.9
20260506183413 20 138 16.1 32.2 0.00 0.00 0.00 56 1003.8
20260506183213 20 138 16.1 32.2 0.00 0.00 0.00 56 1003.6
20260506183013 20 137 17.7 30.6 0.00 0.00 0.00 56 1003.6
20260506182813 20 138 17.7 35.4 0.00 0.00 0.00 56 1003.6
20260506182613 20 138 17.7 37.0 0.00 0.00 0.00 56 1003.6
20260506182213 20 138 17.7 37.0 0.00 0.00 0.00 55 1003.6
20260506182013 20 139 17.7 37.0 0.00 0.00 0.00 55 1003.5
20260506181814 20 139 17.7 37.0 0.00 0.00 0.00 55 1003.4
20260506181613 20 139 17.7 37.0 0.00 0.00 0.00 55 1003.3
20260506181413 20 139 17.7 37.0 0.00 0.00 0.00 55 1003.4
20260506181013 20 137 17.7 35.4 0.00 0.00 0.00 54 1003.3
20260506180813 20 136 16.1 35.4 0.00 0.00 0.00 54 1003.3
20260506180613 20 135 16.1 35.4 0.00 0.00 0.00 54 1003.2
20260506180413 20 134 16.1 35.4 0.00 0.00 0.00 54 1003.3
20260506180213 20 132 16.1 35.4 0.00 0.00 0.00 54 1003.3
20260506180013 20 133 16.1 30.6 0.00 0.00 0.00 54 1003.4
20260506175813 21 134 16.1 30.6 0.00 0.00 0.00 54 1003.4
20260506175613 21 135 16.1 33.8 0.00 0.00 0.00 53 1003.4
20260506175413 21 135 16.1 33.8 0.00 0.00 0.00 53 1003.5
20260506175213 21 137 16.1 38.6 0.00 0.00 0.00 53 1003.4
20260506175013 21 136 16.1 38.6 0.00 0.00 0.00 53 1003.5
20260506174813 21 137 16.1 38.6 0.00 0.00 0.00 53 1003.5
20260506174613 21 136 16.1 38.6 0.00 0.00 0.00 53 1003.6
20260506174413 21 135 14.5 38.6 0.00 0.00 0.00 53 1003.5
20260506174213 21 135 14.5 32.2 0.00 0.00 0.00 53 1003.5
20260506173813 21 132 14.5 30.6 0.00 0.00 0.00 52 1003.6
20260506173613 21 136 14.5 33.8 0.00 0.00 0.00 53 1003.5
20260506173413 21 137 14.5 33.8 0.00 0.00 0.00 53 1003.4
20260506173213 21 138 14.5 33.8 0.00 0.00 0.00 53 1003.4
20260506173013 21 138 14.5 33.8 0.00 0.00 0.00 52 1003.4
20260506172813 21 136 12.9 33.8 0.00 0.00 0.00 52 1003.4
20260506172612 21 134 12.9 30.6 0.00 0.00 0.00 52 1003.4
20260506172413 21 134 12.9 30.6 0.00 0.00 0.00 52 1003.5
20260506172213 21 131 14.5 30.6 0.00 0.00 0.00 52 1003.5
20260506172013 21 136 14.5 35.4 0.00 0.00 0.00 52 1003.5
20260506171813 21 139 14.5 35.4 0.00 0.00 0.00 51 1003.5
20260506171613 21 139 16.1 35.4 0.00 0.00 0.00 51 1003.6
20260506171413 22 141 16.1 35.4 0.00 0.00 0.00 51 1003.6
20260506171213 22 141 16.1 35.4 0.00 0.00 0.00 51 1003.6
20260506171013 22 138 16.1 30.6 0.00 0.00 0.00 50 1003.6
20260506170813 22 138 16.1 37.0 0.00 0.00 0.00 50 1003.6
20260506170613 22 140 16.1 37.0 0.00 0.00 0.00 50 1003.6
20260506170213 22 141 17.7 37.0 0.00 0.00 0.00 50 1003.6
20260506170013 22 144 17.7 37.0 0.00 0.00 0.00 50 1003.6
20260506165813 22 144 17.7 32.2 0.00 0.00 0.00 50 1003.7
20260506165613 22 145 17.7 33.8 0.00 0.00 0.00 49 1003.6
20260506165413 22 145 17.7 33.8 0.00 0.00 0.00 50 1003.7
20260506165213 22 147 17.7 33.8 0.00 0.00 0.00 49 1003.7
20260506164813 22 145 17.7 43.5 0.00 0.00 0.00 49 1003.6
20260506164613 22 141 17.7 43.5 0.00 0.00 0.00 49 1003.7
20260506164413 22 139 16.1 43.5 0.00 0.00 0.00 49 1003.7
20260506164213 22 136 16.1 43.5 0.00 0.00 0.00 49 1003.8
20260506164013 22 135 16.1 43.5 0.00 0.00 0.00 49 1003.8
20260506163813 22 132 16.1 33.8 0.00 0.00 0.00 50 1003.7
20260506163613 22 131 14.5 33.8 0.00 0.00 0.00 50 1003.7
20260506163413 22 130 14.5 33.8 0.00 0.00 0.00 50 1003.8
20260506163213 22 130 14.5 33.8 0.00 0.00 0.00 50 1003.9
20260506163013 22 130 14.5 30.6 0.00 0.00 0.00 50 1003.9
20260506162813 22 130 16.1 30.6 0.00 0.00 0.00 50 1003.8
20260506162613 22 132 16.1 30.6 0.00 0.00 0.00 50 1003.9
20260506162413 22 133 17.7 33.8 0.00 0.00 0.00 50 1003.9
20260506161813 22 138 19.3 35.4 0.00 0.00 0.00 50 1004.0
20260506161613 22 138 19.3 37.0 0.00 0.00 0.00 50 1004.0
20260506161413 22 141 17.7 37.0 0.00 0.00 0.00 49 1004.1
20260506161012 22 145 17.7 37.0 0.00 0.00 0.00 49 1004.1
20260506160813 22 141 16.1 40.2 0.00 0.00 0.00 48 1004.1
20260506160613 22 142 16.1 40.2 0.00 0.00 0.00 48 1004.1
20260506160413 23 139 14.5 40.2 0.00 0.00 0.00 48 1004.0
20260506160213 23 136 14.5 40.2 0.00 0.00 0.00 48 1004.1
20260506160013 23 135 14.5 40.2 0.00 0.00 0.00 47 1004.1
20260506155813 23 136 16.1 25.7 0.00 0.00 0.00 47 1004.1
20260506155412 23 132 16.1 30.6 0.00 0.00 0.00 47 1004.2
20260506155213 23 135 16.1 30.6 0.00 0.00 0.00 46 1004.2
20260506155013 23 137 16.1 30.6 0.00 0.00 0.00 47 1004.2
20260506154813 23 139 16.1 30.6 0.00 0.00 0.00 46 1004.3
20260506154613 23 140 17.7 30.6 0.00 0.00 0.00 46 1004.3
20260506154212 23 135 17.7 35.4 0.00 0.00 0.00 46 1004.4
20260506154013 23 133 19.3 35.4 0.00 0.00 0.00 46 1004.3
20260506153613 23 130 19.3 35.4 0.00 0.00 0.00 46 1004.4
20260506153413 23 129 19.3 35.4 0.00 0.00 0.00 46 1004.4
20260506153213 23 127 19.3 35.4 0.00 0.00 0.00 46 1004.4
20260506152813 23 125 20.9 35.4 0.00 0.00 0.00 46 1004.4
20260506152613 23 122 20.9 35.4 0.00 0.00 0.00 46 1004.4
20260506152413 23 122 20.9 35.4 0.00 0.00 0.00 46 1004.5
20260506152213 23 121 19.3 35.4 0.00 0.00 0.00 46 1004.5
20260506151813 23 120 19.3 41.8 0.00 0.00 0.00 46 1004.6
20260506151413 23 124 19.3 41.8 0.00 0.00 0.00 45 1004.5
20260506151213 23 126 19.3 41.8 0.00 0.00 0.00 45 1004.5
20260506151012 23 127 17.7 41.8 0.00 0.00 0.00 46 1004.6
20260506150812 23 125 17.7 33.8 0.00 0.00 0.00 45 1004.6
20260506150413 23 126 19.3 35.4 0.00 0.00 0.00 46 1004.6
20260506150012 23 130 19.3 35.4 0.00 0.00 0.00 45 1004.7
20260506145812 23 128 19.3 35.4 0.00 0.00 0.00 45 1004.7
20260506145613 23 126 19.3 38.6 0.00 0.00 0.00 46 1004.7
20260506145413 23 125 20.9 38.6 0.00 0.00 0.00 46 1004.7
20260506145213 23 121 20.9 38.6 0.00 0.00 0.00 46 1004.7
20260506144812 23 121 19.3 38.6 0.00 0.00 0.00 46 1004.7
20260506144612 23 119 19.3 38.6 0.00 0.00 0.00 46 1004.7
20260506144414 23 118 19.3 38.6 0.00 0.00 0.00 45 1004.8
20260506143813 23 119 19.3 38.6 0.00 0.00 0.00 45 1004.8
20260506143613 23 119 19.3 37.0 0.00 0.00 0.00 46 1004.8
20260506143413 23 121 19.3 37.0 0.00 0.00 0.00 46 1004.8
20260506143213 23 121 17.7 37.0 0.00 0.00 0.00 46 1004.7
20260506143013 23 123 17.7 37.0 0.00 0.00 0.00 46 1004.8
20260506142813 23 123 16.1 37.0 0.00 0.00 0.00 46 1004.8
20260506142613 23 123 16.1 37.0 0.00 0.00 0.00 46 1004.8
20260506142413 23 126 14.5 32.2 0.00 0.00 0.00 46 1004.8
20260506142212 23 127 16.1 29.0 0.00 0.00 0.00 47 1004.9
20260506142013 23 127 16.1 29.0 0.00 0.00 0.00 46 1004.9
20260506141813 23 126 17.7 25.7 0.00 0.00 0.00 46 1004.9
20260506141012 23 125 19.3 35.4 0.00 0.00 0.00 45 1005.1
20260506140812 23 125 19.3 35.4 0.00 0.00 0.00 44 1005.2
20260506140613 23 124 19.3 35.4 0.00 0.00 0.00 45 1005.1
20260506140413 23 126 19.3 37.0 0.00 0.00 0.00 45 1005.1
20260506140213 23 125 19.3 37.0 0.00 0.00 0.00 45 1005.2
20260506140013 23 124 19.3 37.0 0.00 0.00 0.00 45 1005.1
20260506135812 23 125 19.3 37.0 0.00 0.00 0.00 45 1005.1
20260506135612 23 126 19.3 37.0 0.00 0.00 0.00 45 1005.1
20260506135412 23 124 19.3 37.0 0.00 0.00 0.00 47 1005.0
20260506135013 23 122 19.3 38.6 0.00 0.00 0.00 48 1005.1
20260506134813 23 122 19.3 38.6 0.00 0.00 0.00 48 1005.2
20260506134612 23 123 19.3 38.6 0.00 0.00 0.00 49 1005.2
20260506134412 23 123 19.3 38.6 0.00 0.00 0.00 49 1005.2
20260506134212 23 122 19.3 38.6 0.00 0.00 0.00 49 1005.3
20260506134012 23 122 19.3 35.4 0.00 0.00 0.00 49 1005.4
20260506133813 23 125 17.7 35.4 0.00 0.00 0.00 49 1005.4
20260506133613 23 127 17.7 35.4 0.00 0.00 0.00 49 1005.5
20260506133413 23 128 19.3 32.2 0.00 0.00 0.00 48 1005.4
20260506133213 23 128 19.3 33.8 0.00 0.00 0.00 48 1005.5
20260506133012 23 129 19.3 35.4 0.00 0.00 0.00 49 1005.5
20260506132813 23 125 19.3 35.4 0.00 0.00 0.00 49 1005.5
20260506132613 23 123 19.3 37.0 0.00 0.00 0.00 49 1005.5
20260506132413 23 121 17.7 37.0 0.00 0.00 0.00 50 1005.5
20260506132213 23 124 16.1 37.0 0.00 0.00 0.00 50 1005.5
20260506131813 23 131 14.5 37.0 0.00 0.00 0.00 50 1005.6
20260506131412 23 133 14.5 27.4 0.00 0.00 0.00 51 1005.7
20260506131212 23 132 14.5 30.6 0.00 0.00 0.00 51 1005.7
20260506131012 23 129 14.5 30.6 0.00 0.00 0.00 51 1005.8
20260506130812 23 127 16.1 30.6 0.00 0.00 0.00 53 1005.9
20260506130613 22 123 16.1 30.6 0.00 0.00 0.00 52 1006.0
20260506130413 22 121 16.1 30.6 0.00 0.00 0.00 51 1006.1
20260506130213 22 117 17.7 27.4 0.00 0.00 0.00 52 1006.0
20260506130013 22 113 17.7 37.0 0.00 0.00 0.00 53 1006.0
20260506125813 22 114 17.7 37.0 0.00 0.00 0.00 53 1005.9
20260506125613 22 119 17.7 37.0 0.00 0.00 0.00 53 1005.9
20260506125413 22 125 17.7 37.0 0.00 0.00 0.00 52 1006.0
20260506125213 22 126 17.7 37.0 0.00 0.00 0.00 52 1006.0
20260506125012 23 127 16.1 32.2 0.00 0.00 0.00 52 1006.0
20260506124812 23 124 16.1 33.8 0.00 0.00 0.00 52 1006.0
20260506124612 23 124 16.1 33.8 0.00 0.00 0.00 51 1006.1
20260506124412 23 119 16.1 33.8 0.00 0.00 0.00 51 1006.1
20260506124213 23 117 17.7 33.8 0.00 0.00 0.00 51 1006.1
20260506124013 23 118 17.7 33.8 0.00 0.00 0.00 50 1006.0
20260506123812 23 120 17.7 32.2 0.00 0.00 0.00 51 1006.1
20260506123613 23 117 17.7 33.8 0.00 0.00 0.00 51 1006.1
20260506123412 23 118 17.7 33.8 0.00 0.00 0.00 51 1006.1
20260506123212 23 122 17.7 33.8 0.00 0.00 0.00 51 1006.1
20260506123013 23 128 17.7 33.8 0.00 0.00 0.00 50 1006.0
20260506122813 23 130 17.7 33.8 0.00 0.00 0.00 50 1006.0
20260506122613 24 135 19.3 32.2 0.00 0.00 0.00 50 1006.2
20260506122413 23 133 19.3 32.2 0.00 0.00 0.00 50 1006.0
20260506122213 23 129 19.3 37.0 0.00 0.00 0.00 49 1006.2
20260506122013 23 124 19.3 37.0 0.00 0.00 0.00 51 1006.3
20260506121613 23 117 17.7 37.0 0.00 0.00 0.00 51 1006.3
20260506121413 23 119 17.7 37.0 0.00 0.00 0.00 52 1006.4
20260506121213 23 119 17.7 35.4 0.00 0.00 0.00 52 1006.3
20260506120813 23 127 17.7 32.2 0.00 0.00 0.00 50 1006.4
20260506120613 23 127 17.7 32.2 0.00 0.00 0.00 51 1006.3
20260506120413 23 123 17.7 32.2 0.00 0.00 0.00 51 1006.3
20260506120212 23 122 19.3 32.2 0.00 0.00 0.00 50 1006.4
20260506115213 23 123 19.3 35.4 0.00 0.00 0.00 51 1006.4
20260506115013 23 123 19.3 35.4 0.00 0.00 0.00 51 1006.3
20260506114813 23 124 19.3 35.4 0.00 0.00 0.00 50 1006.3
20260506114613 23 121 19.3 35.4 0.00 0.00 0.00 50 1006.4
20260506114413 23 119 19.3 32.2 0.00 0.00 0.00 51 1006.3
20260506114212 23 119 17.7 32.2 0.00 0.00 0.00 52 1006.3
20260506114012 23 119 17.7 32.2 0.00 0.00 0.00 52 1006.3
20260506113413 23 119 17.7 29.0 0.00 0.00 0.00 52 1006.3
20260506113212 23 119 17.7 32.2 0.00 0.00 0.00 53 1006.4
20260506113012 23 120 17.7 32.2 0.00 0.00 0.00 52 1006.4
20260506112812 23 123 17.7 32.2 0.00 0.00 0.00 52 1006.4
20260506112613 23 125 17.7 32.2 0.00 0.00 0.00 53 1006.5
20260506112013 23 125 19.3 35.4 0.00 0.00 0.00 53 1006.5
20260506111813 23 126 19.3 35.4 0.00 0.00 0.00 53 1006.6
20260506111612 23 128 19.3 35.4 0.00 0.00 0.00 53 1006.6
20260506111412 23 134 19.3 37.0 0.00 0.00 0.00 52 1006.7
20260506111212 23 139 19.3 37.0 0.00 0.00 0.00 52 1006.6
20260506111012 23 141 17.7 37.0 0.00 0.00 0.00 52 1006.6
20260506110813 23 140 17.7 37.0 0.00 0.00 0.00 53 1006.6
20260506110613 23 139 17.7 37.0 0.00 0.00 0.00 53 1006.7
20260506110413 23 133 17.7 33.8 0.00 0.00 0.00 52 1006.6
20260506110213 22 130 16.1 33.8 0.00 0.00 0.00 52 1006.7
20260506110013 22 128 16.1 33.8 0.00 0.00 0.00 53 1006.8
20260506105813 22 130 16.1 33.8 0.00 0.00 0.00 52 1006.8
20260506105613 22 127 16.1 27.4 0.00 0.00 0.00 52 1006.8
20260506105213 23 126 16.1 35.4 0.00 0.00 0.00 52 1006.8
20260506105013 23 126 16.1 35.4 0.00 0.00 0.00 53 1006.7
20260506104813 23 126 16.1 35.4 0.00 0.00 0.00 53 1006.8
20260506104413 23 126 16.1 30.6 0.00 0.00 0.00 52 1006.8
20260506104212 23 127 16.1 30.6 0.00 0.00 0.00 52 1006.8
20260506104013 23 126 14.5 30.6 0.00 0.00 0.00 53 1006.8
20260506103813 23 124 14.5 30.6 0.00 0.00 0.00 52 1006.8
20260506103613 22 121 14.5 30.6 0.00 0.00 0.00 53 1006.8
20260506103413 22 121 14.5 33.8 0.00 0.00 0.00 52 1006.9
20260506103213 22 119 14.5 33.8 0.00 0.00 0.00 52 1006.8
20260506103012 22 122 14.5 33.8 0.00 0.00 0.00 52 1006.8
20260506102813 22 120 14.5 33.8 0.00 0.00 0.00 51 1006.9
20260506102614 23 118 12.9 33.8 0.00 0.00 0.00 50 1006.9
20260506102413 23 119 12.9 27.4 0.00 0.00 0.00 50 1007.0
20260506102213 23 125 12.9 27.4 0.00 0.00 0.00 52 1007.0
20260506102013 22 124 12.9 22.5 0.00 0.00 0.00 51 1006.9
20260506101813 22 130 12.9 22.5 0.00 0.00 0.00 52 1007.0
20260506101612 22 137 12.9 24.1 0.00 0.00 0.00 51 1007.0
20260506101413 22 137 12.9 24.1 0.00 0.00 0.00 52 1007.0
20260506101213 22 129 12.9 25.7 0.00 0.00 0.00 53 1007.1
20260506101012 22 129 12.9 25.7 0.00 0.00 0.00 53 1007.1
20260506100813 22 126 12.9 25.7 0.00 0.00 0.00 55 1007.1
20260506100613 22 125 12.9 25.7 0.00 0.00 0.00 56 1007.1
20260506100414 22 121 12.9 25.7 0.00 0.00 0.00 56 1007.2
20260506100212 22 123 12.9 24.1 0.00 0.00 0.00 56 1007.2
20260506100013 22 123 11.3 24.1 0.00 0.00 0.00 55 1007.1
20260506095813 22 123 11.3 24.1 0.00 0.00 0.00 55 1007.1
20260506095413 22 124 11.3 24.1 0.00 0.00 0.00 54 1007.1
20260506095213 22 124 11.3 24.1 0.00 0.00 0.00 54 1007.2
20260506095013 22 123 9.7 24.1 0.00 0.00 0.00 53 1007.2
20260506094813 22 119 9.7 22.5 0.00 0.00 0.00 52 1007.2
20260506094613 22 125 9.7 22.5 0.00 0.00 0.00 50 1007.1
20260506094412 22 131 9.7 22.5 0.00 0.00 0.00 51 1007.2
20260506094013 22 135 9.7 19.3 0.00 0.00 0.00 51 1007.1
20260506093814 22 139 9.7 19.3 0.00 0.00 0.00 53 1007.1
20260506093613 22 133 9.7 19.3 0.00 0.00 0.00 52 1007.1
20260506093413 22 126 9.7 19.3 0.00 0.00 0.00 55 1007.2
20260506093212 21 126 8.0 17.7 0.00 0.00 0.00 55 1007.2
20260506093013 22 135 8.0 17.7 0.00 0.00 0.00 55 1007.2
20260506092612 22 148 8.0 17.7 0.00 0.00 0.00 57 1007.2
20260506092413 22 158 8.0 17.7 0.00 0.00 0.00 54 1007.3
20260506092012 22 153 8.0 17.7 0.00 0.00 0.00 54 1007.3
20260506091813 21 161 9.7 19.3 0.00 0.00 0.00 56 1007.3
20260506091613 21 163 9.7 19.3 0.00 0.00 0.00 55 1007.3
20260506091412 22 165 8.0 19.3 0.00 0.00 0.00 55 1007.4
20260506091213 22 168 8.0 19.3 0.00 0.00 0.00 57 1007.3
20260506091013 22 174 8.0 19.3 0.00 0.00 0.00 57 1007.3
20260506090613 22 173 8.0 17.7 0.00 0.00 0.00 59 1007.4
20260506090414 21 158 8.0 17.7 0.00 0.00 0.00 58 1007.4
20260506090214 21 155 9.7 17.7 0.00 0.00 0.00 59 1007.4
20260506090013 21 152 9.7 16.1 0.00 0.00 0.00 61 1007.4
20260506085813 21 148 9.7 17.7 0.00 0.00 0.00 58 1007.3
20260506085413 21 158 8.0 19.3 0.00 0.00 0.00 60 1007.5
20260506085213 21 158 8.0 19.3 0.00 0.00 0.00 60 1007.4
20260506085013 21 158 8.0 19.3 0.00 0.00 0.00 60 1007.4
20260506084413 21 170 9.7 17.7 0.00 0.00 0.00 60 1007.4
20260506084213 21 174 9.7 17.7 0.00 0.00 0.00 62 1007.5
20260506084012 20 173 9.7 17.7 0.00 0.00 0.00 61 1007.5
20260506083813 20 169 9.7 19.3 0.00 0.00 0.00 60 1007.5
20260506083613 20 167 9.7 19.3 0.00 0.00 0.00 61 1007.5
20260506082813 20 160 9.7 19.3 0.00 0.00 0.00 61 1007.5
20260506082413 20 162 11.3 20.9 0.00 0.00 0.00 63 1007.5
20260506082216 20 154 11.3 20.9 0.00 0.00 0.00 63 1007.5
20260506082013 20 150 11.3 20.9 0.00 0.00 0.00 63 1007.5
20260506081813 20 159 11.3 20.9 0.00 0.00 0.00 63 1007.5
20260506081613 20 158 11.3 20.9 0.00 0.00 0.00 63 1007.4
20260506081413 20 151 9.7 19.3 0.00 0.00 0.00 63 1007.4
20260506080813 20 163 8.0 20.9 0.00 0.00 0.00 62 1007.4
20260506080613 20 163 8.0 20.9 0.00 0.00 0.00 62 1007.4
20260506080412 20 172 8.0 20.9 0.00 0.00 0.00 62 1007.4
20260506080213 20 172 8.0 20.9 0.00 0.00 0.00 64 1007.4
20260506073412 18 154 9.7 17.7 0.00 0.00 0.00 68 1007.5
20260506073215 18 155 9.7 20.9 0.00 0.00 0.00 68 1007.6
20260506073013 18 155 9.7 20.9 0.00 0.00 0.00 68 1007.5
20260506072813 18 158 9.7 20.9 0.00 0.00 0.00 67 1007.5
20260506072413 18 157 9.7 20.9 0.00 0.00 0.00 66 1007.7
20260506072212 18 157 9.7 16.1 0.00 0.00 0.00 68 1007.7
20260506072014 18 156 9.7 16.1 0.00 0.00 0.00 68 1007.7
20260506071813 18 162 11.3 17.7 0.00 0.00 0.00 68 1007.7
20260506071612 18 168 11.3 19.3 0.00 0.00 0.00 68 1007.7
20260506071413 18 167 11.3 19.3 0.00 0.00 0.00 68 1007.7
20260506071213 18 165 11.3 19.3 0.00 0.00 0.00 68 1007.8
20260506070813 18 153 11.3 19.3 0.00 0.00 0.00 68 1007.7
20260506070613 18 151 11.3 19.3 0.00 0.00 0.00 69 1007.8
20260506070413 17 153 11.3 19.3 0.00 0.00 0.00 68 1007.7
20260506070213 17 156 11.3 22.5 0.00 0.00 0.00 68 1007.7
20260506062212 17 165 9.7 19.3 0.00 0.00 0.00 69 1007.6
20260506061613 17 160 11.3 19.3 0.00 0.00 0.00 70 1007.5
20260506061412 17 158 11.3 19.3 0.00 0.00 0.00 70 1007.5
20260506061213 17 157 11.3 19.3 0.00 0.00 0.00 69 1007.5
20260506061013 17 157 11.3 19.3 0.00 0.00 0.00 69 1007.5
20260506060813 17 161 11.3 19.3 0.00 0.00 0.00 68 1007.5
20260506060412 17 165 11.3 19.3 0.00 0.00 0.00 69 1007.5
20260506060212 17 166 11.3 25.7 0.00 0.00 0.00 69 1007.5
20260506051413 15 177 6.4 11.3 0.00 0.00 0.00 73 1007.3
20260506051012 15 161 6.4 12.9 0.00 0.00 0.00 73 1007.2
20260506050813 15 155 8.0 14.5 0.00 0.00 0.00 72 1007.1
20260506050612 15 149 8.0 14.5 0.00 0.00 0.00 72 1007.1
20260506050413 15 147 8.0 19.3 0.00 0.00 0.00 72 1007.1
20260506050212 15 148 8.0 19.3 0.00 0.00 0.00 72 1007.1
20260506045013 15 140 9.7 16.1 0.00 0.00 0.00 74 1006.9
20260506044812 15 142 9.7 17.7 0.00 0.00 0.00 74 1006.9
20260506044613 15 143 9.7 17.7 0.00 0.00 0.00 74 1006.8
20260506044413 15 143 9.7 17.7 0.00 0.00 0.00 74 1006.9
20260506044212 14 145 8.0 17.7 0.00 0.00 0.00 74 1006.8
20260506044013 14 146 8.0 17.7 0.00 0.00 0.00 75 1006.8
20260506043612 14 148 8.0 16.1 0.00 0.00 0.00 75 1006.8
20260506043413 14 150 9.7 16.1 0.00 0.00 0.00 75 1006.8
20260506043213 14 151 9.7 14.5 0.00 0.00 0.00 75 1006.8
20260506043012 14 155 9.7 16.1 0.00 0.00 0.00 75 1006.8
20260506042612 14 148 9.7 19.3 0.00 0.00 0.00 75 1006.7
20260506042413 14 145 9.7 19.3 0.00 0.00 0.00 74 1006.7
20260506041812 14 137 9.7 20.9 0.00 0.00 0.00 74 1006.6
20260506041613 14 143 9.7 20.9 0.00 0.00 0.00 74 1006.6
20260506041212 14 147 9.7 17.7 0.00 0.00 0.00 74 1006.6
20260506040812 14 153 9.7 17.7 0.00 0.00 0.00 74 1006.6
20260506040412 14 150 9.7 17.7 0.00 0.00 0.00 74 1006.5
20260506040212 14 151 9.7 17.7 0.00 0.00 0.00 74 1006.6
20260506035812 14 152 8.0 16.1 0.00 0.00 0.00 74 1006.6
20260506035612 14 152 8.0 16.1 0.00 0.00 0.00 74 1006.5
20260506035412 14 149 6.4 16.1 0.00 0.00 0.00 74 1006.5
20260506035212 14 145 6.4 16.1 0.00 0.00 0.00 73 1006.5
20260506035012 14 141 6.4 16.1 0.00 0.00 0.00 73 1006.4
20260506034812 14 137 8.0 14.5 0.00 0.00 0.00 73 1006.4
20260506034612 14 135 8.0 12.9 0.00 0.00 0.00 74 1006.3
20260506034412 14 139 8.0 16.1 0.00 0.00 0.00 74 1006.3
20260506034213 14 142 8.0 16.1 0.00 0.00 0.00 74 1006.3
20260506034013 14 143 8.0 16.1 0.00 0.00 0.00 73 1006.3
20260506033812 14 144 9.7 16.1 0.00 0.00 0.00 74 1006.2
20260506033612 14 143 9.7 17.7 0.00 0.00 0.00 74 1006.2
20260506033412 14 142 9.7 17.7 0.00 0.00 0.00 73 1006.3
20260506033212 14 140 9.7 17.7 0.00 0.00 0.00 73 1006.3
20260506032812 14 142 8.0 19.3 0.00 0.00 0.00 73 1006.3
20260506032612 14 147 8.0 19.3 0.00 0.00 0.00 73 1006.2
20260506032212 14 158 8.0 19.3 0.00 0.00 0.00 74 1006.2
20260506032013 14 168 8.0 17.7 0.00 0.00 0.00 73 1006.2
20260506031813 14 168 8.0 17.7 0.00 0.00 0.00 73 1006.2
20260506031612 14 165 8.0 17.7 0.00 0.00 0.00 73 1006.2
20260506031412 14 166 9.7 17.7 0.00 0.00 0.00 73 1006.3
20260506031212 14 164 9.7 17.7 0.00 0.00 0.00 73 1006.3
20260506031012 14 157 11.3 17.7 0.00 0.00 0.00 72 1006.2
20260506030412 15 148 12.9 25.7 0.00 0.00 0.00 72 1006.2
20260506030012 15 146 12.9 25.7 0.00 0.00 0.00 72 1006.1
20260506025813 15 147 12.9 25.7 0.00 0.00 0.00 72 1006.1
20260506025612 15 148 12.9 25.7 0.00 0.00 0.00 72 1006.1
20260506025412 15 151 12.9 24.1 0.00 0.00 0.00 72 1006.1
20260506025012 15 155 14.5 20.9 0.00 0.00 0.00 71 1006.1
20260506024812 15 155 14.5 24.1 0.00 0.00 0.00 71 1006.1
20260506024612 15 154 14.5 27.4 0.00 0.00 0.00 71 1006.0
20260506024412 15 155 14.5 27.4 0.00 0.00 0.00 71 1006.0
20260506024212 15 152 14.5 27.4 0.00 0.00 0.00 71 1006.0
20260506024012 15 151 14.5 27.4 0.00 0.00 0.00 70 1006.0
20260506023612 15 150 14.5 27.4 0.00 0.00 0.00 70 1006.0
20260506023412 15 147 14.5 27.4 0.00 0.00 0.00 70 1005.9
20260506023212 15 146 12.9 24.1 0.00 0.00 0.00 70 1005.9
20260506023012 15 147 12.9 24.1 0.00 0.00 0.00 70 1005.9
20260506022613 15 148 12.9 24.1 0.00 0.00 0.00 70 1005.8
20260506022412 15 147 12.9 24.1 0.00 0.00 0.00 70 1005.8
20260506022212 15 148 12.9 25.7 0.00 0.00 0.00 71 1005.8
20260506022012 15 150 12.9 25.7 0.00 0.00 0.00 71 1005.7
20260506021812 15 151 11.3 25.7 0.00 0.00 0.00 71 1005.8
20260506021612 15 151 9.7 25.7 0.00 0.00 0.00 71 1005.7
20260506021412 15 153 9.7 25.7 0.00 0.00 0.00 71 1005.7
20260506021212 15 155 9.7 25.7 0.00 0.00 0.00 71 1005.8
20260506021012 15 161 9.7 25.7 0.00 0.00 0.00 71 1005.7
20260506020612 15 163 11.3 16.1 0.00 0.00 0.00 71 1005.7
20260506020412 15 165 12.9 20.9 0.00 0.00 0.00 71 1005.7
20260506020212 15 166 12.9 22.5 0.00 0.00 0.00 71 1005.7
20260506015812 15 151 12.9 29.0 0.00 0.00 0.00 71 1005.6
20260506015612 15 148 12.9 29.0 0.00 0.00 0.00 70 1005.6
20260506015412 15 141 12.9 29.0 0.00 0.00 0.00 70 1005.5